Location: Hochstatterhof
(48.7256°N, 10.3487°E)
Time: 01:30:02
(UTC+00:00)

CZ-2C R/B - Pass Details

Date: 26 September 2023
Orbit: 783 x 869 km, 98.3° (Epoch: 04 December)

Event Time Altitude Azimuth Distance (km) Brightness Sun altitude
Exits shadow 01:27:17 40° 43° (NE) 1,152 3.7 -34.0°
Drops below altitude 10° 01:31:27 10° 357° (N) 2,384 5.5 -33.5°
Sets 01:33:54 0° 351° (N) 3,331 6.3 -33.3°
